Location: Akdamlar
(36.8729°N, 30.5187°E)
Time: 19:15:35
(UTC+00:00)

Cosmos 1707 - Pass Details

Date: 18 September 2020
Orbit: 515 x 530 km, 82.5° (Epoch: 26 October)

Event Time Altitude Azimuth Distance (km) Brightness Sun altitude
Rises 17:43:33 0° 349° (N) 2,643 6.7 -21.0°
Reaches altitude 10° 17:45:43 10° 346° (NNW) 1,750 5.8 -21.5°
Maximum altitude 17:49:30 61° 265° (W) 586 3.1 -22.2°
Enters shadow 17:50:47 37° 201° (SSW) 811 3.6 -22.4°
